Visibility
15.0 15.0 15.0 15.0 15.0 15.0 15.0 15.0 15.0 15.0 15.0 15.0 15.0 15.0 15.0 15.0 15.0 15.0 15.0 15.0 15.0 15.0 15.0 15.0 15.0 15.0 15.0 15.0 15.0 15.0 15.0 15.0 15.0 15.0 15.0 15.0 15.0 15.0 15.0 15.0 15.0 7.4 15.0 13.2 14.3 15.0 15.0 15.0 15.0
15.0 15.0 15.0 15.0 15.0 15.0 15.0 15.0 15.0 15.0 15.0 15.0 15.0 15.0 15.0 15.0 15.0 9.9 5.7 15.0 15.0 15.0 15.0 15.0 15.0 15.0 15.0 15.0 15.0 15.0 15.0 15.0 15.0 15.0 15.0 15.0 15.0 15.0 15.0 15.0 15.0 15.0 15.0 15.0 15.0 15.0 15.0 15.0 15.0
15.0 15.0 15.0 15.0 15.0 15.0 15.0 15.0 15.0 15.0 15.0 15.0 15.0 15.0 15.0 15.0 15.0 15.0 15.0 15.0 15.0 15.0 15.0 15.0 15.0 15.0 15.0 15.0 15.0 15.0 15.0 15.0 15.0 15.0 15.0 15.0 15.0 15.0 15.0 8.0 15.0 15.0 15.0 15.0 15.0 15.0 15.0 15.0 15.0
15.0 15.0 15.0 15.0 15.0 15.0 15.0 15.0 15.0 15.0 15.0 15.0 15.0 15.0 15.0 15.0 15.0 15.0 15.0 15.0 15.0 15.0 15.0 15.0 15.0 15.0 15.0 15.0 15.0 15.0 15.0 15.0 15.0 15.0 15.0 15.0 15.0 15.0 15.0 15.0 15.0 15.0 15.0 15.0 15.0 15.0 15.0 15.0 15.0
15.0 14.9 1.2 3.9 15.0 15.0 15.0 15.0 15.0 15.0 15.0 15.0 15.0 15.0 15.0 15.0 15.0 15.0 15.0 15.0 15.0 15.0 15.0 15.0 15.0 15.0 15.0 15.0 15.0 15.0 15.0 15.0 13.8 12.5 15.0 15.0 15.0 15.0 15.0 15.0 15.0 15.0 15.0 15.0 15.0 15.0 15.0 15.0 15.0
15.0 13.1 0.5 15.0 15.0 15.0 15.0 15.0 15.0 15.0 15.0 15.0 15.0 15.0 15.0 15.0 15.0 15.0 15.0 15.0 15.0 15.0 15.0 15.0 15.0 15.0 15.0 15.0 15.0 15.0 15.0 15.0 15.0 6.3 14.7 14.0 12.3 15.0 15.0 15.0 15.0 15.0 15.0 15.0 15.0 15.0 15.0 15.0 15.0
15.0 13.1 15.0 15.0 15.0 15.0 15.0 15.0 15.0 15.0 15.0 15.0 15.0 15.0 15.0 15.0 15.0 15.0 15.0 15.0 15.0 15.0 15.0 15.0 15.0 15.0 15.0 15.0 15.0 15.0 15.0 15.0 15.0 15.0 15.0 15.0 13.8 15.0 15.0 15.0 15.0 15.0 15.0 15.0 15.0 15.0 15.0 15.0 15.0
15.0 1.9 14.8 15.0 15.0 15.0 15.0 15.0 15.0 15.0 15.0 15.0 15.0 15.0 15.0 15.0 15.0 15.0 10.0 15.0 15.0 15.0 15.0 15.0 15.0 15.0 15.0 15.0 15.0 15.0 15.0 15.0 15.0 15.0 15.0 15.0 8.2 15.0 15.0 15.0 15.0 15.0 15.0 15.0 15.0 15.0 15.0 15.0 15.0
15.0 15.0 11.8 9.8 10.3 10.6 7.2 15.0 15.0 15.0 15.0 15.0 15.0 15.0 15.0 13.3 15.0 15.0 13.7 14.7 15.0 14.9 15.0 15.0 15.0 15.0 15.0 15.0 7.1 15.0 13.0 11.6 11.0 6.1 0.4 5.7 15.0 15.0 15.0 15.0 15.0 15.0 15.0 15.0 15.0 15.0 15.0 15.0 15.0
15.0 15.0 15.0 0.0 0.0 0.0 5.6 15.0 15.0 15.0 15.0 15.0 15.0 15.0 15.0 15.0 14.3 15.0 4.3 14.7 6.0 15.0 14.7 15.0 15.0 15.0 15.0 15.0 13.2 15.0 4.0 10.2 12.6 5.6 9.9 15.0 15.0 15.0 15.0 15.0 15.0 15.0 15.0 15.0 15.0 15.0 0.6 15.0 15.0
15.0 12.9 15.0 12.8 0.0 0.0 6.1 15.0 15.0 15.0 15.0 13.2 15.0 15.0 15.0 15.0 15.0 9.9 15.0 15.0 15.0 15.0 12.2 15.0 15.0 15.0 15.0 15.0 15.0 15.0 15.0 15.0 15.0 11.5 13.5 14.8 14.3 12.9 15.0 15.0 15.0 15.0 15.0 15.0 15.0 15.0 15.0 15.0 15.0
15.0 15.0 15.0 15.0 15.0 15.0 15.0 15.0 15.0 15.0 15.0 15.0 15.0 15.0 15.0 15.0 7.6 5.3 7.8 6.7 12.5 15.0 15.0 10.3 15.0 15.0 15.0 15.0 15.0 15.0 14.3 13.0 15.0 14.2 15.0 15.0 15.0 4.8 10.5 15.0 15.0 15.0 15.0 15.0 15.0 15.0 15.0 15.0 15.0
15.0 15.0 15.0 15.0 15.0 15.0 15.0 15.0 15.0 15.0 15.0 15.0 15.0 15.0 15.0 15.0 15.0 15.0 13.3 15.0 14.0 15.0 11.7 15.0 15.0 15.0 15.0 15.0 15.0 15.0 15.0 15.0 13.8 15.0 15.0 15.0 15.0 15.0 15.0 15.0 15.0 15.0 15.0 15.0 15.0 15.0 15.0 15.0 15.0
15.0 15.0 15.0 15.0 15.0 15.0 15.0 15.0 15.0 15.0 15.0 15.0 15.0 15.0 15.0 15.0 15.0 15.0 12.3 1.9 11.4 2.9 9.4 8.3 13.0 13.3 15.0 15.0 15.0 15.0 15.0 15.0 15.0 15.0 15.0 15.0 15.0 15.0 15.0 15.0 15.0 15.0 15.0 15.0 15.0 15.0 15.0 15.0 15.0
15.0 15.0 15.0 15.0 15.0 15.0 15.0 15.0 15.0 15.0 15.0 15.0 15.0 15.0 15.0 15.0 15.0 15.0 15.0 15.0 15.0 15.0 15.0 15.0 14.7 9.5 15.0 15.0 15.0 15.0 15.0 14.3 14.0 15.0 15.0 15.0 15.0 15.0 15.0 15.0 15.0 15.0 15.0 15.0 15.0 15.0 15.0 15.0 15.0
15.0 15.0 15.0 15.0 15.0 15.0 15.0 15.0 15.0 15.0 15.0 15.0 15.0 15.0 15.0 15.0 15.0 15.0 15.0 15.0 5.0 15.0 15.0 15.0 10.1 9.5 5.3 15.0 8.0 15.0 15.0 15.0 15.0 15.0 15.0 15.0 15.0 15.0 15.0 15.0 15.0 15.0 15.0 15.0 15.0 15.0 15.0 15.0 15.0
15.0 15.0 15.0 15.0 15.0 15.0 12.4 13.8 15.0 15.0 15.0 15.0 15.0 10.7 15.0 15.0 15.0 15.0 15.0 15.0 13.3 2.6 13.3 15.0 15.0 9.1 10.8 10.5 2.4 15.0 15.0 9.0 15.0 15.0 15.0 15.0 15.0 15.0 9.2 15.0 12.8 13.9 15.0 15.0 15.0 15.0 15.0 15.0 15.0
1.0 1.7 15.0 1.8 14.4 15.0 13.6 15.0 4.4 15.0 9.4 9.9 15.0 8.1 14.8 15.0 15.0 15.0 15.0 15.0 15.0 10.3 11.8 15.0 9.5 4.2 4.0 6.8 10.1 4.8 15.0 6.4 15.0 15.0 15.0 15.0 2.7 15.0 3.1 15.0 10.0 8.1 15.0 15.0 15.0 15.0 15.0 15.0 15.0
0.4 0.4 0.5 15.0 15.0 13.6 4.8 0.1 0.1 0.5 7.5 3.0 0.4 13.6 10.3 14.0 15.0 15.0 15.0 15.0 15.0 15.0 10.8 6.0 2.9 2.8 2.8 15.0 0.1 0.1 0.1 1.8 0.2 15.0 15.0 15.0 15.0 15.0 2.3 15.0 15.0 14.4 15.0 15.0 15.0 15.0 15.0 15.0 15.0
4.2 0.5 15.0 15.0 15.0 5.4 0.1 0.1 0.1 2.2 0.1 1.4 1.1 0.3 1.2 5.1 15.0 15.0 15.0 11.3 15.0 15.0 13.2 14.1 0.3 9.2 3.8 6.7 13.6 13.6 15.0 5.1 4.9 10.8 14.8 15.0 15.0 15.0 15.0 15.0 13.4 7.9 5.4 14.3 15.0 15.0 15.0 15.0 15.0
12.1 4.0 4.2 0.6 15.0 15.0 4.2 0.2 0.1 0.5 0.2 15.0 15.0 1.5 5.1 2.5 15.0 15.0 15.0 15.0 15.0 15.0 5.2 6.4 14.6 1.0 3.7 15.0 9.6 7.4 1.5 1.2 0.1 0.1 0.1 15.0 15.0 15.0 15.0 15.0 7.5 14.8 15.0 9.4 13.4 15.0 15.0 15.0 15.0
2.1 14.9 9.1 12.1 0.3 0.1 0.9 0.1 12.9 0.1 0.3 14.9 15.0 15.0 6.7 1.4 5.5 10.3 15.0 15.0 15.0 15.0 11.1 7.4 14.9 13.4 4.1 3.2 2.0 8.3 0.6 0.5 8.0 0.2 2.9 15.0 15.0 12.7 15.0 15.0 5.7 11.9 15.0 9.6 9.4 14.9 15.0 15.0 8.1
13.3 15.0 15.0 15.0 0.3 0.1 5.3 0.1 15.0 0.4 7.6 10.1 3.8 15.0 8.0 2.2 5.1 14.6 11.9 4.6 15.0 15.0 15.0 15.0 15.0 15.0 3.7 13.9 11.2 2.5 12.7 4.8 15.0 14.6 1.6 5.4 15.0 15.0 15.0 15.0 14.7 15.0 15.0 15.0 10.1 13.3 15.0 15.0 15.0
15.0 15.0 15.0 1.2 0.2 0.3 1.0 5.9 3.9 0.3 0.1 1.3 15.0 15.0 15.0 15.0 1.1 3.4 15.0 10.5 15.0 15.0 15.0 15.0 15.0 15.0 15.0 1.2 9.3 6.0 3.3 5.5 2.9 0.4 0.1 0.2 9.4 15.0 15.0 15.0 15.0 15.0 15.0 15.0 14.1 10.7 15.0 15.0 15.0
15.0 15.0 15.0 15.0 7.0 0.1 0.3 12.7 7.9 12.4 15.0 6.2 13.7 15.0 15.0 15.0 6.6 12.1 15.0 15.0 7.5 14.8 15.0 15.0 15.0 15.0 15.0 15.0 15.0 14.7 10.5 4.0 4.2 1.4 0.2 0.1 0.1 1.1 15.0 11.4 15.0 15.0 15.0 15.0 7.2 5.8 15.0 15.0 15.0
13.8 14.5 14.3 15.0 0.5 7.7 15.0 5.2 15.0 15.0 15.0 15.0 15.0 15.0 15.0 15.0 15.0 15.0 15.0 15.0 15.0 14.6 15.0 15.0 15.0 15.0 8.6 15.0 14.4 15.0 14.7 13.6 12.6 12.3 6.7 4.0 12.2 3.2 15.0 15.0 10.4 15.0 15.0 12.4 8.3 15.0 15.0 15.0 15.0
15.0 5.5 0.4 0.5 2.1 5.3 2.5 15.0 15.0 15.0 15.0 15.0 15.0 15.0 15.0 15.0 15.0 15.0 15.0 15.0 15.0 15.0 15.0 15.0 15.0 15.0 15.0 15.0 15.0 15.0 15.0 12.6 8.8 15.0 9.8 8.6 4.1 7.4 2.1 5.6 10.7 13.2 6.3 15.0 15.0 13.8 15.0 13.7 15.0
15.0 15.0 10.9 7.8 0.7 13.3 15.0 9.0 15.0 15.0 15.0 15.0 15.0 15.0 15.0 15.0 15.0 15.0 15.0 15.0 15.0 15.0 15.0 15.0 15.0 15.0 15.0 15.0 15.0 15.0 15.0 15.0 0.7 10.9 15.0 10.4 9.3 3.2 4.5 5.3 13.7 8.7 11.2 6.4 12.9 6.2 6.3 9.2 12.3
15.0 15.0 11.1 9.6 2.7 1.3 1.4 15.0 15.0 15.0 15.0 15.0 15.0 15.0 15.0 15.0 15.0 15.0 15.0 15.0 15.0 15.0 15.0 15.0 15.0 15.0 15.0 15.0 15.0 15.0 15.0 15.0 15.0 15.0 11.1 14.6 10.3 14.3 5.5 4.6 5.9 4.5 8.4 8.9 11.2 15.0 14.6 12.1 15.0
15.0 15.0 15.0 14.4 14.9 2.7 1.7 11.2 15.0 15.0 15.0 4.7 15.0 15.0 15.0 15.0 15.0 15.0 15.0 15.0 15.0 15.0 15.0 15.0 15.0 15.0 15.0 15.0 15.0 15.0 15.0 15.0 15.0 15.0 14.3 0.4 8.2 14.2 9.5 6.8 2.3 3.2 6.9 8.2 14.6 8.0 14.2 14.8 12.4